User: anonymous
Location: Unspecified
(0.0000°N, 0.0000°E)
Time: 14:14:11
(UTC+02:00)
Language:

BREEZE-M DEB (TANK) - Orbit

View from above orbital plane
View from above orbital plane
View from above satellite
View from above satellite

Ground track
Ground track

The orbit data is extracted from the following two-line orbital elements,

1 33374U 08044B   14273.41537334  .00001819  00000-0  55269-3 0  7484
2 33374 049.4458 257.6202 5454569 211.3211 346.0056 04.84475704105833
Epoch (UTC): 30 September 2014 09:58:08
Eccentricity: 0.5454569
inclination: 49.4458°
perigee height: 328 km
apogee height: 16422 km
right ascension of ascending node: 257.6202°
argument of perigee: 211.3211°
revolutions per day: 4.84475704
mean anomaly at epoch: 346.0056°
orbit number at epoch: 10583

The dashed part of the orbit path shows where the satellite is in the earth's shadow,  

DLR